User: anonymous   Login
Location: Corcelles
(46.1547°N, 4.7234°E)
Time: 22:44:28
(UTC+00:00)
Language:

Cosmos 2082 Rocket - Orbit

View from above orbital plane
View from above orbital plane
View from above satellite
View from above satellite

Ground track
Ground track

The orbit data is extracted from the following two-line orbital elements,

1 20625U 90046B   20263.47841531 -.00000063 +00000-0 -77710-5 0  9998
2 20625 071.0003 170.8447 0011900 100.1655 260.0810 14.14661531565913
Epoch (UTC): 19 September 2020 11:28:55
Eccentricity: 0.0011900
inclination: 71.0003°
perigee height: 835 km
apogee height: 852 km
right ascension of ascending node: 170.8447°
argument of perigee: 100.1655°
revolutions per day: 14.14661531
mean anomaly at epoch: 260.0810°
orbit number at epoch: 56591

The dashed part of the orbit path shows where the satellite is in the earth's shadow,  

DLR